Location: Clarion
(42.7316°N, 93.7330°W)
Time: 08:58:44
(UTC+00:00)

Cosmos 2221 - Pass Details

Date: 22 April 2026
Orbit: 569 x 587 km, 82.5° (Epoch: 17 May)

Event Time Altitude Azimuth Distance (km) Brightness Sun altitude
Exits shadow 09:09:24 30° 306° (NW) 1,040 3.6 -21.9°
Drops below altitude 10° 09:12:24 10° 349° (NNW) 1,879 5.4 -21.5°
Sets 09:14:46 0° 359° (N) 2,782 6.5 -21.1°
